STARLINK-36455, 67418

Orbit data source: Space-Track

STARLINK-36455, 67418 is a payload satellite owned by SpaceX/Seattle (US) in LEO that was launched on Mon, 12 Jan 2026 UTC via an FALCON 9 launch vehicle from the Air Force Eastern Test Range (AFETR). Payload-class satellites include a variety of spacecraft equipped with specific instruments for various scientific and technological missions. These include communications satellites like Starlink; space stations such as the ISS; scientific satellites like the Hubble; Earth observation satellites from companies like Planet Labs, Umbra, and HawkEye 360; GPS; miniature CubeSats for education and research; and military/defense satellites.

Loading next visibility...
Identifier
67418, 2026-005Q
Orbit
LEO
Country
Flag of USUS
Related business
Manufacturer
SpaceX/Seattle
Mission
Operational Commercial Communications
Bus & Motor
STARLINK V2MO, Unknown motor
Mass
575 kg wet, ~530 kg dry
Launch date (UTC)
2026-01-12 (5 months ago)
Launch vehicle
FALCON 9
Launch site
Air Force Eastern Test Range (AFETR)
Object type
Payload
Rocket body
Debris
Shape & HBR
Box + 2 Pan, 17.7 m
Radar Cross Section
36.964 m², Large (>1 m²)

Expand to show TLE details & history
Last TLE update: 22 hours ago

TLE from 22 hours ago
0 STARLINK-36455
1 67418U 26005Q   26171.00073054  .00009888  00000-0  36820-3 0  9990
2 67418  43.0023  20.1782 0001356 276.4122  83.6575 15.27595332 24348
Epoch: 2026-06-20T00:01Z
TLE epoch observation values (Epoch: 2026-06-20T00:01:03.118Z)
Latitude
-0.00004°
Longitude
111.69353°
Altitude
482.676 km
Speed
7.626 km/s
True Right ascension
01h 20m 42s
True Declination
0° 00' 00"
Sunlit
Object was in daylight at epoch
Visualization orbit readout
Latitude
Unknown
Longitude
Unknown
Altitude
Unknown
Speed
Unknown
Apparent Right ascension
Unknown
Apparent Declination
Unknown
Sunlit
N/A
Visualization observer readout
Local Sidereal Time
08:32:55
Azimuth
Unknown
Elevation
Unknown
Doppler factor
Unknown
Orbital elements
Apogee altitude
485.879 km
Perigee altitude
484.017 km
Semi-major axis
6,863.085 km
Eccentricity
0.00014
Inclination
43.0023°
RAAN
20.1782°
Arg. of periapsis
276.4122°
True anomaly
83.67294°
Mean anomaly
83.6575°
Eccentric anomaly
83.66522°
Mean motion
3.81737 °/min
Orbital period
94.31 mins
BSTAR
0.0003682
Loading maneuver chart data...
Computing Atmospheric mass density...
Loading historical data...
Loading historical data...
Loading historical data...
Loading historical data...
Loading historical data...
Loading historical data...
Loading historical data...

Documentation

Showing up to 5 results
|